Погода в Терпилицах

Россия / Санкт-Петербург и Ленинградская область     59°29′13″N   29°21′44″E
темп.,
°C
ветер,
м/с
пор.,
м/с
влажн.,
%
обл.,
%
осадки,
мм/ч
давл.,
гПа
погр.,
м
7 марта, вс
вс700:00−1зюз71397100 5.2 9911059
03:00−2з41178100 9.6 9901067
06:00−7з6137179 0.1 9901104
09:00−9з3137565 0.1 990737
12:00−6сз6107628 0.1 9911260
15:00−5сз467350 0.1 9921071
18:00−8сз368625 0.0 994239
21:00−10ссз4128823 0.0 996383
8 марта, пн
пн800:00−9ссз41193100 0.1 998666
03:00−10с51190100 0.3 1002702
06:00−12с51191100 0.1 1004656
09:00−13с4992100 0.2 1008510
12:00−11с4788100 0.0 1011464
15:00−10ссз468592 0.0 1013525
18:00−11ссз369170 0.0 1014312
21:00−15с239772 0.0 101651
9 марта, вт
вт900:00−16с229757 0.0 101720
03:00−18с129729 0.0 101820
06:00−18св119637 0.0 101920
09:00−16вюв239562 0.0 102098
12:00−12юв248796 0.0 1020394
15:00−11вюв358398 0.0 1020482
18:00−12в4880100 0.0 1019513
21:00−14в41084100 0.0 1020405
10 марта, ср
ср1000:00−17в4109082 0.0 1021315
03:00−18в4118841 0.0 1022267
06:00−18в410890 0.0 1023254
09:00−17в410770 0.0 1024263
12:00−11в487058 0.0 1025388
15:00−9в476775 0.0 1025682
18:00−11в387861 0.0 1024362
21:00−15вюв4108731 0.0 1024270
11 марта, чт
чт1100:00−16вюв39910 0.0 1023204
03:00−16вюв410890 0.0 1021206
06:00−17вюв49910 0.0 1019245
09:00−15юв49939 0.0 1017293
12:00−11юв488989 0.0 1015424
15:00−7юв598894 0.1 1011506
18:00−6ююв6129199 0.1 1006749
21:00−3ююв71589100 0.2 1000966